STARLINK-33796, 63515

Orbit data source: Space-Track

STARLINK-33796, 63515 is a payload satellite owned by SpaceX/Seattle (US) in LEO that was launched on Mon, 07 Apr 2025 UTC via an FALCON 9 launch vehicle from the Air Force Western Test Range (AFWTR). Payload-class satellites include a variety of spacecraft equipped with specific instruments for various scientific and technological missions. These include communications satellites like Starlink; space stations such as the ISS; scientific satellites like the Hubble; Earth observation satellites from companies like Planet Labs, Umbra, and HawkEye 360; GPS; miniature CubeSats for education and research; and military/defense satellites.

Loading next visibility...
Identifier
63515, 2025-071Y
Orbit
LEO
Country
Flag of USUS
Related business
Manufacturer
SpaceX/Seattle
Mission
Operational Commercial Communications
Bus & Motor
STARLINK V2MO, Unknown motor
Mass
575 kg wet, ~530 kg dry
Launch date (UTC)
2025-04-07 (8 months ago)
Launch vehicle
FALCON 9
Launch site
Air Force Western Test Range (AFWTR)
Object type
Payload
Rocket body
Debris
Shape & HBR
Box + 2 Pan, 17.7 m
Radar Cross Section
36.964 m², Large (>1 m²)

Expand to show TLE details & history
Last TLE update: 10 hours ago

TLE from 10 hours ago
0 STARLINK-33796
1 63515U 25071Y   25352.64208133  .00018277  00000-0  62742-3 0  9998
2 63515  53.1594 156.1636 0001649  83.0209 277.0980 15.30214820 40361
Epoch: 2025-12-18T15:24Z
TLE epoch observation values (Epoch: 2025-12-18T15:24:35.826Z)
Latitude
0.00001°
Longitude
-162.48033°
Altitude
475.931 km
Speed
7.629 km/s
True Right ascension
10h 24m 39s
True Declination
0° 00' 00"
Sunlit
Object was in daylight at epoch
Visualization orbit readout
Latitude
Unknown
Longitude
Unknown
Altitude
Unknown
Speed
Unknown
Apparent Right ascension
Unknown
Apparent Declination
Unknown
Sunlit
N/A
Visualization observer readout
Local Sidereal Time
23:55:33
Azimuth
Unknown
Elevation
Unknown
Doppler factor
Unknown
Orbital elements
Apogee altitude
476.558 km
Perigee altitude
474.297 km
Semi-major axis
6,853.564 km
Eccentricity
0.00016
Inclination
53.1594°
RAAN
156.1636°
Arg. of periapsis
83.0209°
True anomaly
277.07925°
Mean anomaly
277.098°
Eccentric anomaly
277.08862°
Mean motion
3.82533 °/min
Orbital period
94.11 mins
BSTAR
0.00062742
Loading maneuver chart data...
Computing Atmospheric mass density...
Loading historical data...
Loading historical data...
Loading historical data...
Loading historical data...
Loading historical data...
Loading historical data...
Loading historical data...

Documentation

Showing up to 5 results
|